This is the latest recevied weather packets stored in our database for station/object S57D-6. If no packets are shown the sender has not sent any weather packets the latest 1 day(s).
| Time | Temp. | Humidity | Pressure | Rain* | Wind** | Luminosity | Snow |
|---|---|---|---|---|---|---|---|
| 1777984050 | 17.22° C | 64% | 1013.4 hPa | 0 mm | 1.79 m/s, 315° | - | - |
| 1777983748 | 17.22° C | 64% | 1013.3 hPa | 0 mm | 1.79 m/s, 225° | - | - |
| 1777983449 | 17.22° C | 63% | 1013.4 hPa | 0 mm | 0.45 m/s, 202° | - | - |
| 1777983148 | 16.67° C | 64% | 1013.5 hPa | 0 mm | 0 m/s | - | - |
| 1777982547 | 17.22° C | 63% | 1013.5 hPa | 0 mm | 1.34 m/s, 315° | - | - |
| 1777981947 | 17.78° C | 63% | 1013.5 hPa | 0 mm | 0 m/s | - | - |
| 1777981648 | 17.78° C | 62% | 1013.5 hPa | 0 mm | 0 m/s | - | - |
| 1777981346 | 17.78° C | 62% | 1013.5 hPa | 0 mm | 0 m/s | - | - |
| 1777980746 | 17.22° C | 62% | 1013.6 hPa | 0 mm | 0.89 m/s, 292° | - | - |
| 1777980449 | 17.22° C | 62% | 1013.6 hPa | 0 mm | 0.45 m/s, 225° | - | - |
| 1777980447 | 17.22° C | 62% | 1013.6 hPa | 0 mm | 0.45 m/s, 225° | - | - |
| 1777980145 | 17.22° C | 62% | 1013.6 hPa | 0 mm | 0 m/s | - | - |
| 1777979846 | 17.22° C | 62% | 1013.5 hPa | 0 mm | 0 m/s | - | - |
| 1777979544 | 17.22° C | 62% | 1013.5 hPa | 0 mm | 0 m/s | - | - |
| 1777978944 | 17.22° C | 61% | 1013.8 hPa | 0 mm | 0.45 m/s, 315° | - | - |
| 1777978644 | 17.22° C | 61% | 1013.8 hPa | 0 mm | 0 m/s | - | - |
| 1777978343 | 17.22° C | 61% | 1013.7 hPa | 0 mm | 0.45 m/s, 202° | - | - |
| 1777978044 | 17.22° C | 61% | 1013.7 hPa | 0 mm | 0 m/s | - | - |
| 1777977743 | 17.22° C | 60% | 1013.8 hPa | 0 mm | 0.45 m/s, 315° | - | - |
| 1777977142 | 17.22° C | 60% | 1013.9 hPa | 0 mm | 1.34 m/s, 157° | - | - |
| 1777976843 | 17.22° C | 60% | 1013.8 hPa | 0 mm | 0 m/s | - | - |
| 1777976542 | 17.22° C | 59% | 1013.7 hPa | 0 mm | 0 m/s | - | - |
| 1777976242 | 17.22° C | 59% | 1013.7 hPa | 0 mm | 0.45 m/s, 315° | - | - |
| 1777975941 | 17.22° C | 59% | 1013.7 hPa | 0 mm | 1.34 m/s, 247° | - | - |
| 1777975642 | 17.22° C | 59% | 1013.6 hPa | 0 mm | 0.45 m/s, 247° | - | - |
* Rain latest hour (hover to see other rain measurements)
** Current wind speed in m/s (hover to see current wind gust speed)